ICEYE-X43

导读

ICEYE-X43是芬兰于2024年8月16日发射合成孔径雷达卫星,属于ICEYE商业地球观测星座。卫星重85公斤,运行在倾角97.7°的太阳同步轨道,搭载X波段有源相控阵雷达,具备多种成像模式,最高分辨率可达0.5米,支持灾害监测、海事监管等多种应用,将助力提升星座重访能力,为全球用户提供高频次遥感数据服务。

基本信息
目录编号:
60539
目录名称:
ICEYE-X43
国际标识:
2024-149BZ
轨道中心:
EARTH
卫星名称:
ICEYE-X43
卫星全名:
ICEYE-X43
卫星状态:
在轨 (已飞行757 天)
发射日期:
2024-08-16 UTC
国别 :
巴西 (BR)
星等 :
--
该卫星已列入 空间交会检测服务 Space Conjunction Data Service (SCDS) ,当前飞行风险评估等级: 无高风险
轨道信息
数据来源 国际轨道数据
星历时间: 2026-09-12T11:50:04+0800
13小时前
查看轨道信息
半长轴: 6944.992km
偏心率: 0.0010524
轨道倾角: 97.671°
近地点辐角 110.011°
升交点赤经 330.912°
平近点角 250.225°
近地点: 559.546km
远地点: 574.164km
周期: 95.999分钟
每日圈数: 15.000137
详细信息
使用方式:
暂无
2D轨道图
3D轨道图
轨道高度分析图
轨道倾角分析图
轨道综合分析图
查看轨道综合分析图
交会数据列表
事件ID 空间交会对象 最接近时刻(TCA) 交会距离 交会风险概率(CRP) 交会风险指数(CRI) 操作
CDM_260913-072606-053906-678223
2026-09-13T
07:26:51+0000
0.606 km
远距离
2.560093E-5 中风险 0.63
CDM_260915-020905-594906-053921
2026-09-15T
02:09:23+0000
1.150 km
极远距离
1.688751E-5 中风险 0.6
CDM_260913-103304-071906-053927
2026-09-13T
10:33:53+0000
1.212 km
极远距离
1.344955E-5 中风险 0.58
CDM_260914-173103-475206-053922
2026-09-14T
17:31:45+0000
1.439 km
极远距离
7.807763E-6 低风险 0.53
CDM_260912-203906-053906-325725
2026-09-12T
20:39:17+0000
1.534 km
极远距离
6.300364E-6 低风险 0.51
CDM_260913-150105-593206-053924
2026-09-13T
15:01:06+0000
1.597 km
极远距离
5.546588E-6 低风险 0.5
CDM_260913-174404-915906-053921
2026-09-13T
17:44:01+0000
2.736 km
极远距离
1.503765E-6 低风险 0.39
CDM_260912-221506-053906-325721
2026-09-12T
22:15:19+0000
2.881 km
极远距离
1.420861E-6 低风险 0.38
与全量物体交会距离演化趋势
与全量物体交会风险概率演化趋势